Ireland West Airport Knock, Ireland

6:15 PM IST on August 27, 2016 (GMT +0100)
Connaught

Weather History for EIKN - January, 2014

Change the Weather History Date:

Saturday, January 25, 2014

  Actual Average Record
Temperature  
Mean Temperature 42 °F -  
Max Temperature 47 °F - - ()
Min Temperature 37 °F - - ()
Degree Days  
Heating Degree Days 23    
Moisture  
Dew Point 37 °F    
Average Humidity 81    
Maximum Humidity 100    
Minimum Humidity 53    
Precipitation  
Precipitation 0.39 in - - ()
Sea Level Pressure  
Sea Level Pressure 29.73 in    
Wind  
Wind Speed 20 mph ()    
Max Wind Speed 40 mph    
Max Gust Speed 53 mph    
Visibility 8.1 miles    
Events Rain , Snow , Hail    
T = Trace of Precipitation, MM = Missing Value Source: Averaged Metar Reports

Daily Weather History Graph

Daily Weather History Graph

Search for Another Location

Airport or City:

Trip Planner

Search our weather history database for the weather conditions in past years. The results will help you decide how hot, cold, wet, or windy it might be!

Date:

Astronomy

Jan. 25, 2014 Rise Set
Actual Time 8:33 AM GMT 5:02 PM GMT
Civil Twilight 7:53 AM GMT 5:42 PM GMT
Nautical Twilight 7:10 AM GMT 6:25 PM GMT
Astronomical Twilight 6:28 AM GMT 7:07 PM GMT
Moon 2:44 AM GMT (1/25) 11:56 AM GMT (1/25)
Length of Visible Light 9h 48m
Length of Day
8h 29m
Last Quarter, 36% of the Moon is Illuminated
Jan 25
Last Quarter
Jan 30
New
Feb 6
First Quarter
Feb 14
Full
Feb 22
Last Quarter

Hourly Weather History & Observations

Time (GMT) Temp. Windchill Dew Point Humidity Pressure Visibility Wind Dir Wind Speed Gust Speed Precip Events Conditions
12:00 AM 46 °F - 42 °F 83% 29.74 in - WSW 22.4 mph - -  
1:00 AM 46 °F - 42 °F 80% 29.74 in - WSW 22.4 mph - -  
2:00 AM 46 °F - 41 °F 78% 29.74 in - WSW 22.4 mph - -  
3:00 AM 46 °F - 41 °F 75% 29.75 in - WSW 22.4 mph - -  
4:00 AM 46 °F - 39 °F 68% 29.73 in - WSW 20.1 mph - -  
5:00 AM 46 °F - 39 °F 69% 29.71 in - SW 15.7 mph - -  
6:00 AM 47 °F - 39 °F 65% 29.68 in 16 mi SW 22.4 mph - -   Mostly Cloudy
6:00 AM 46.4 °F 38.5 °F 39.2 °F 76% 29.65 in 6.2 mi SW 21.9 mph 34.5 mph N/A   Mostly Cloudy
7:00 AM 46 °F - 42 °F 80% 29.64 in 16 mi SSW 17.9 mph - - Rain Light Rain Showers
7:00 AM 46.4 °F 39.2 °F 42.8 °F 87% 29.62 in 6.2 mi SSW 18.4 mph 29.9 mph N/A Rain Light Rain Showers
7:30 AM 44.6 °F 38.1 °F 44.6 °F 100% 29.59 in 6.2 mi WSW 13.8 mph - N/A Rain Light Rain Showers
8:00 AM 45 °F - 41 °F 82% 29.62 in 16 mi WSW 22.4 mph - - Rain Light Rain Showers
8:00 AM 44.6 °F 36.1 °F 41.0 °F 87% 29.59 in 6.2 mi WSW 21.9 mph - N/A Rain Light Rain Showers
8:30 AM 44.6 °F 34.7 °F 41.0 °F 87% 29.59 in 6.2 mi WSW 29.9 mph 44.9 mph N/A   Mostly Cloudy
9:00 AM 45 °F - 41 °F 82% 29.61 in 5 mi WSW 26.8 mph - - Rain Heavy Rain Showers
9:00 AM 44.6 °F 35.1 °F 41.0 °F 87% 29.59 in 5.0 mi WSW 27.6 mph 41.4 mph N/A Rain Rain Showers
9:30 AM 41.0 °F 28.3 °F 41.0 °F 100% 29.59 in 6.2 mi West 40.3 mph 52.9 mph N/A Rain Light Rain Showers
10:00 AM 40 °F - 38 °F 88% 29.65 in 22 mi West 38.0 mph - - Rain Light Rain Showers
10:00 AM 41.0 °F 28.6 °F 37.4 °F 87% 29.62 in 6.2 mi West 38.0 mph 52.9 mph N/A   Scattered Clouds
10:30 AM 41.0 °F 30.5 °F 37.4 °F 87% 29.62 in 6.2 mi West 26.5 mph - N/A Rain Light Rain Showers
11:00 AM 39 °F - 36 °F 84% 29.67 in 11 mi West 26.8 mph - - Rain Light Rain Showers
11:00 AM 39.2 °F 28.0 °F 35.6 °F 87% 29.62 in 6.2 mi West 26.5 mph 38.0 mph N/A Rain Light Rain Showers
11:30 AM 39.2 °F 29.3 °F 33.8 °F 81% 29.65 in 6.2 mi West 20.7 mph 33.4 mph N/A Rain Light Rain Showers
12:00 PM 38 °F - 36 °F 92% 29.73 in 9 mi West 24.6 mph - - Rain Light Rain Showers
12:00 PM 39.2 °F 28.3 °F 37.4 °F 93% 29.68 in 6.2 mi West 25.3 mph 40.3 mph N/A Rain Light Rain Showers
12:30 PM 39.2 °F 29.0 °F 33.8 °F 81% 29.68 in 6.2 mi West 21.9 mph 36.8 mph N/A   Scattered Clouds
1:00 PM 37 °F - 36 °F 94% 29.75 in 6 mi West 31.3 mph - - Hail Light Small Hail Showers
1:00 PM 37.4 °F 24.6 °F 35.6 °F 93% 29.71 in 6.2 mi West 32.2 mph 49.5 mph N/A Rain Light Rain Showers
1:30 PM 37.4 °F 25.2 °F 33.8 °F 87% 29.71 in 6.2 mi West 28.8 mph 42.6 mph N/A   Scattered Clouds
2:00 PM 40 °F - 34 °F 70% 29.74 in 31 mi West 20.1 mph - - Hail Light Hail Showers
2:00 PM 39.2 °F 29.6 °F 33.8 °F 81% 29.71 in 6.2 mi West 19.6 mph - N/A   Scattered Clouds
2:30 PM 41.0 °F 30.9 °F 32.0 °F 70% 29.74 in 6.2 mi West 24.2 mph - N/A   Scattered Clouds
3:00 PM 42 °F - 31 °F 53% 29.79 in 19 mi West 24.6 mph - - Rain Light Rain Showers
3:00 PM 42.8 °F 33.1 °F 30.2 °F 61% 29.77 in 6.2 mi West 25.3 mph 36.8 mph N/A   Mostly Cloudy
3:30 PM 41.0 °F 31.4 °F 32.0 °F 70% 29.77 in 6.2 mi West 21.9 mph - N/A Rain Light Rain Showers
4:00 PM 38 °F - 35 °F 83% 29.84 in 12 mi WNW 15.7 mph - - Hail Light Hail Showers
4:00 PM 39.2 °F 30.5 °F 35.6 °F 87% 29.80 in 6.2 mi WNW 16.1 mph 27.6 mph N/A   Mostly Cloudy
4:30 PM 39.2 °F 29.3 °F 33.8 °F 81% 29.80 in 6.2 mi West 20.7 mph - N/A   Scattered Clouds
5:00 PM 39 °F - 33 °F 70% 29.87 in 12 mi West 15.7 mph - - Snow Light Snow Showers
5:00 PM 39.2 °F 30.5 °F 32.0 °F 75% 29.83 in 6.2 mi West 16.1 mph - N/A Rain Light Rain Showers
5:30 PM 37.4 °F 29.3 °F 35.6 °F 93% 29.86 in 6.2 mi West 12.7 mph - N/A   Scattered Clouds
6:00 PM 39 °F - 33 °F 71% 29.90 in 17 mi West 17.9 mph - - Snow Light Snow Showers
6:00 PM 39.2 °F 29.8 °F 33.8 °F 81% 29.86 in 6.2 mi West 18.4 mph - N/A   Mostly Cloudy
6:30 PM 39.2 °F 30.2 °F 30.2 °F 70% 29.86 in 6.2 mi West 17.3 mph - N/A   Mostly Cloudy
7:00 PM 38 °F - 32 °F 72% 29.90 in 22 mi WSW 8.9 mph - -   Partly Cloudy
7:00 PM 37.4 °F 30.8 °F 32.0 °F 81% 29.86 in 6.2 mi WSW 9.2 mph - N/A   Mostly Cloudy
8:00 PM 37 °F - 35 °F 89% 29.91 in - SW 6.7 mph - -  
9:00 PM 38 °F - 36 °F 88% 29.91 in - SSW 6.7 mph - -  
10:00 PM 39 °F - 36 °F 85% 29.88 in - South 8.9 mph - -  
11:00 PM 39 °F - 36 °F 87% 29.83 in - SSW 8.9 mph - -